Location: Baia Mare
(47.6567°N, 23.5850°E)
Time: 18:26:15
(UTC+03:00)

ISS - Pass Details

Date: 16 May 2018
Orbit: 402 x 407 km, 51.6° (Epoch: 27 May)

Event Time Altitude Azimuth Distance (km) Brightness Sun altitude
Rises 04:29:28 0° 288° (WNW) 2,319 -0.2 -11.2°
Reaches altitude 10° 04:31:36 10° 295° (WNW) 1,459 -1.2 -10.9°
Maximum altitude 04:34:45 44° 10° (N) 569 -2.6 -10.6°
Drops below altitude 10° 04:37:54 10° 84° (E) 1,457 -0.2 -10.2°
Sets 04:40:03 0° 91° (E) 2,316 0.8 -9.9°
